Retour au catalogue

USA 573

ActifMilitaireVLEO
NORAD 67485·PAYLOAD·🇺🇸 United States

Lancé Jan 17, 2026 depuis Vandenberg Space Force Base

Loading…

Prochains Passages (prochaines 24 heures)

TLE

PériméSource: Mike McCants

Époque: Mar 20, 2026, 01:49 UTC

1 67485U 26011B   26079.07599469 0.00000000  00000-0  00000-0 0    06
2 67485  70.0000 100.9190 0002000 154.1430 205.8569 14.96712962    01

Suivez USA 573 en temps réel avec AllMySat

Download on the App Store